This is the latest recevied weather packets stored in our database for station/object WI0K. If no packets are shown the sender has not sent any weather packets the latest 10 day(s).
| Time | Temp. | Humidity | Pressure | Rain* | Wind** | Luminosity | Snow |
|---|---|---|---|---|---|---|---|
| 1777918244 | 22.22° C | 23% | 1009.3 hPa | 0 mm | - | 656 W/m² | - |
| 1777917944 | 22.78° C | 23% | 1009.5 hPa | 0 mm | - | 439 W/m² | - |
| 1777917643 | 22.78° C | 24% | 1009.5 hPa | 0 mm | - | 999 W/m² | - |
| 1777917342 | 22.22° C | 23% | 1009.5 hPa | 0 mm | - | 999 W/m² | - |
| 1777917041 | 22.22° C | 23% | 1009.6 hPa | 0 mm | - | 991 W/m² | - |
| 1777916741 | 22.22° C | 22% | 1009.7 hPa | 0 mm | - | 995 W/m² | - |
| 1777916440 | 21.67° C | 25% | 1009.8 hPa | 0 mm | - | 679 W/m² | - |
| 1777916140 | 21.67° C | 24% | 1009.8 hPa | 0 mm | - | 664 W/m² | - |
| 1777915839 | 21.67° C | 24% | 1009.8 hPa | 0 mm | - | 886 W/m² | - |
| 1777915538 | 21.11° C | 25% | 1009.8 hPa | 0 mm | - | 792 W/m² | - |
| 1777915238 | 21.67° C | 24% | 1009.8 hPa | 0 mm | - | 965 W/m² | - |
| 1777914937 | 21.67° C | 25% | 1009.9 hPa | 0 mm | - | 965 W/m² | - |
| 1777914636 | 21.67° C | 25% | 1009.9 hPa | 0 mm | - | 999 W/m² | - |
| 1777914336 | 21.11° C | 25% | 1009.9 hPa | 0 mm | - | 960 W/m² | - |
| 1777914035 | 21.11° C | 24% | 1010 hPa | 0 mm | - | 951 W/m² | - |
| 1777913735 | 21.11° C | 25% | 1010 hPa | 0 mm | - | 876 W/m² | - |
| 1777913434 | 20.56° C | 26% | 1010 hPa | 0 mm | - | 928 W/m² | - |
| 1777913133 | 20° C | 27% | 1010.2 hPa | 0 mm | - | 919 W/m² | - |
| 1777912833 | 20° C | 26% | 1010.2 hPa | 0 mm | - | 851 W/m² | - |
| 1777912532 | 19.44° C | 27% | 1010.2 hPa | 0 mm | - | 837 W/m² | - |
| 1777912231 | 18.89° C | 28% | 1010.2 hPa | 0 mm | - | 530 W/m² | - |
| 1777911931 | 18.89° C | 27% | 1010.3 hPa | 0 mm | - | 530 W/m² | - |
| 1777911630 | 19.44° C | 28% | 1010.3 hPa | 0 mm | - | 475 W/m² | - |
| 1777911329 | 19.44° C | 27% | 1010.3 hPa | 0 mm | - | 566 W/m² | - |
| 1777911029 | 18.89° C | 27% | 1010.4 hPa | 0 mm | - | 530 W/m² | - |
* Rain latest hour (hover to see other rain measurements)
** Current wind speed in m/s (hover to see current wind gust speed)